Home   Weather   Luxembourg   Past weeks

Flag for Luxembourg Past Weather in Luxembourg, Luxembourg — Yesterday and Last 2 Weeks

Now
28 °F

Passing clouds.


Feels Like: 21 °F
Forecast: 20 / 29 °F
Wind: 7 mph from East

Location: Luxembourg Airport

Current Time: Jan 24, 2017 at 8:49:48 pm

Latest Report: Jan 24, 2017 at 8:20 pm


Visibility: 5 mi

Pressure: 30.33 "Hg

Humidity: 86%

Dew Point: 25 °F

Location of LuxembourgLocation

Past Weather in Luxembourg — Graph

°F

Luxembourg Temperature Yesterday

Maximum temperature yesterday: 32 °F (at 3:20 pm)
Minimum temperature yesterday: 19 °F (at 12:20 am)
Average temperature yesterday: 24 °F

High & Low Weather Summary for the Past Weeks

 TemperatureHumidityPressure
High43 °F (Jan 11, 5:50 pm)100% (Jan 9, 8:50 pm)30.54 "Hg (Jan 9, 8:50 pm)
Low18 °F (Jan 22, 4:50 am)43% (Jan 20, 7:50 pm)29.12 "Hg (Jan 13, 12:20 am)
Average29 °F83%30.14 "Hg
* Reported Jan 9 7:20 pm — Jan 24 7:20 pm, Luxembourg, Weather by CustomWeather, © 2017

Note: Actual official high and low records may vary slightly from our data, if they occured in-between our weather recording intervals... More about our weather records

Advertising

Luxembourg Weather History for the Previous 24 Hours

Scroll right to see more
 ConditionsComfort  
Time TempWeatherWind HumidityBarometerVisibility
7:20 pm
Tue, Jan 24
30 °FPassing clouds.12 mph80%30.33 "HgN/A
6:50 pm30 °FPassing clouds.9 mph80%30.33 "Hg4 mi
6:20 pm30 °FPassing clouds.7 mph86%30.33 "Hg4 mi
5:50 pm30 °FPassing clouds.8 mph86%30.33 "Hg4 mi
5:20 pm30 °FOvercast.8 mph86%30.33 "Hg5 mi
4:50 pm30 °FPartly sunny.7 mph86%30.33 "HgN/A
4:20 pm30 °FPartly sunny.6 mph86%30.30 "HgN/A
3:50 pm30 °FPartly sunny.9 mph80%30.30 "HgN/A
3:20 pm30 °FPartly sunny.8 mph86%30.30 "HgN/A
2:50 pm30 °FPartly sunny.9 mph86%30.30 "HgN/A
2:20 pm30 °FPartly sunny.8 mph86%30.30 "Hg5 mi
1:50 pm30 °FIce fog.9 mph86%30.30 "Hg2 mi
1:20 pm28 °FIce fog.5 mph93%30.30 "Hg2 mi
12:50 pm30 °FIce fog.3 mph86%30.30 "Hg2 mi
12:20 pm28 °FIce fog.5 mph100%30.30 "Hg1 mi
11:50 am28 °FIce fog.5 mph100%30.30 "Hg1 mi
11:20 am28 °FIce fog.7 mph93%30.30 "Hg1 mi
10:50 am28 °FLight snow. Ice fog.6 mph100%30.30 "Hg0 mi
10:20 am27 °FLight snow. Ice fog.7 mph100%30.30 "Hg0 mi
9:50 am27 °FLight snow. Ice fog.3 mph100%30.30 "Hg0 mi
9:20 am27 °FLight snow. Ice fog.1 mph100%30.27 "Hg0 mi
8:50 am27 °FBroken clouds.1 mph100%30.27 "Hg1 mi
8:20 am27 °FLight snow. Broken clouds.1 mph100%30.27 "Hg1 mi
7:50 am27 °FLight snow. Partly cloudy.1 mph100%30.27 "Hg1 mi
7:20 am27 °FLight snow. Partly cloudy.No wind100%30.27 "Hg1 mi
6:50 am27 °FIce fog.2 mph93%30.27 "Hg2 mi
6:20 am27 °FIce fog.2 mph93%30.24 "Hg2 mi
5:50 am27 °FIce fog.3 mph93%30.24 "Hg1 mi
5:20 am27 °FIce fog.2 mph93%30.24 "Hg1 mi
4:50 am27 °FIce fog.1 mph93%30.24 "Hg1 mi
4:20 am27 °FIce fog.2 mph93%30.24 "Hg1 mi
3:50 am27 °FIce fog.3 mph100%30.24 "Hg1 mi
3:20 am27 °FIce fog.5 mph100%30.24 "Hg1 mi
2:50 am27 °FIce fog.5 mph100%30.24 "Hg1 mi
2:20 am25 °FIce fog.3 mph100%30.24 "Hg1 mi
1:50 am25 °FIce fog.5 mph100%30.24 "Hg1 mi
1:20 am25 °FIce fog.6 mph100%30.24 "Hg1 mi
12:50 am25 °FIce fog.8 mph100%30.27 "Hg1 mi
12:20 am25 °FIce fog.9 mph100%30.27 "Hg1 mi
11:50 pm
Mon, Jan 23
25 °FIce fog.9 mph100%30.27 "Hg1 mi
11:20 pm25 °FIce fog.8 mph100%30.24 "Hg1 mi
10:50 pm27 °FIce fog.9 mph93%30.24 "Hg1 mi
10:20 pm27 °FIce fog.9 mph93%30.24 "Hg1 mi
9:50 pm25 °FIce fog.10 mph100%30.24 "Hg1 mi
9:20 pm25 °FIce fog.12 mph93%30.24 "Hg1 mi
8:50 pm25 °FIce fog.8 mph93%30.24 "Hg2 mi
8:20 pm27 °FIce fog.7 mph86%30.24 "Hg2 mi
Weather by CustomWeather, © 2017

See weather overviewHow to use our weather pages